Location: Unspecified
(40.7945°N, 111.1337°W)
Time: 03:21:36
(UTC-06:00)

SR - All Passes

Search period start: 19 June 2019 00:00
Search period end: 29 June 2019 00:00
Orbit: 582 x 874 km, 66.7° (Epoch: 18 June)

Date Brightness Start Highest point End Pass type
(mag) Time Alt. Az. Time Alt. Az. Time Alt. Az.
19 Jun - 04:33:11 10° SSE 04:36:08 18° ESE 04:39:05 10° ENE visible
19 Jun - 06:13:51 10° SW 06:17:49 38° NW 06:21:51 10° NNE daylight
19 Jun - 13:12:24 10° N 13:15:49 19° NE 13:19:25 10° E daylight
19 Jun - 14:53:21 10° NW 14:58:14 66° WSW 15:03:31 10° SSE daylight
20 Jun - 05:23:54 10° SSW 05:28:08 87° WNW 05:32:26 10° NNE daylight
20 Jun - 07:09:36 10° WNW 07:10:52 11° NW 07:12:09 10° NNW daylight
20 Jun - 12:24:41 10° NNE 12:25:41 11° NE 12:26:43 10° NE daylight
20 Jun - 14:03:46 10° NNW 14:08:37 62° ENE 14:13:52 10° SE daylight
20 Jun - 15:47:05 10° WNW 15:50:17 17° WSW 15:53:35 10° SW daylight
21 Jun - 04:34:41 10° S 04:38:38 39° ESE 04:42:36 10° NE visible
21 Jun - 06:17:34 10° W 06:20:48 21° NW 06:24:05 10° N daylight
21 Jun - 13:14:28 10° N 13:18:52 32° NE 13:23:33 10° ESE daylight
21 Jun - 14:56:24 10° NW 15:00:53 34° WSW 15:05:42 10° S daylight
22 Jun - 03:46:31 10° SSE 03:49:17 17° ESE 03:52:04 10° ENE visible
22 Jun - 05:26:56 10° SW 05:30:55 41° NW 05:35:01 10° NNE daylight
22 Jun - 12:25:35 10° N 12:28:55 18° NE 12:32:25 10° E daylight
22 Jun - 14:06:28 10° NW 14:11:22 70° WSW 14:16:43 10° SSE daylight
23 Jun - 04:37:02 10° SSW 04:41:15 87° ESE 04:45:34 10° NNE visible
23 Jun - 06:22:21 10° WNW 06:23:57 12° NW 06:25:34 10° NNW daylight
23 Jun - 11:38:20 10° NE 11:38:47 10° NE 11:39:14 10° NE daylight
23 Jun - 13:16:53 10° NNW 13:21:45 59° ENE 13:27:01 10° SE daylight
23 Jun - 15:00:03 10° WNW 15:03:27 18° WSW 15:07:00 10° SSW daylight
24 Jun - 03:47:54 10° S 03:51:46 36° ESE 03:55:42 10° NE visible
24 Jun - 05:30:34 10° W 05:33:53 22° NW 05:37:17 10° N daylight
24 Jun - 12:27:38 10° N 12:31:59 31° NE 12:36:37 10° ESE daylight
24 Jun - 14:09:28 10° NW 14:14:03 36° WSW 14:18:58 10° S daylight
25 Jun - 02:59:51 10° SE 03:02:27 16° ESE 03:05:03 10° ENE visible
25 Jun - 04:40:00 10° SW 04:44:02 44° NW 04:48:11 10° NNE visible
25 Jun - 11:38:47 10° N 11:42:02 17° NE 11:45:26 10° E daylight
25 Jun - 13:19:34 10° NNW 13:24:32 75° WSW 13:29:55 10° SSE daylight
26 Jun - 03:50:10 10° SSW 03:54:23 81° ESE 03:58:41 10° NNE visible
26 Jun - 05:35:10 10° WNW 05:37:02 13° NW 05:38:55 10° NNW daylight
26 Jun - 12:30:02 10° NNW 12:34:53 56° ENE 12:40:09 10° SE daylight
26 Jun - 14:13:02 10° WNW 14:16:37 19° WSW 14:20:23 10° SSW daylight
27 Jun - 03:01:06 10° S 03:04:55 33° ESE 03:08:46 10° NE visible
27 Jun - 04:43:34 10° WSW 04:46:59 23° NW 04:50:29 10° N visible
27 Jun - 11:40:48 10° N 11:45:06 29° NE 11:49:42 10° ESE daylight
27 Jun - 13:22:33 10° NW 13:27:13 39° WSW 13:32:13 10° S daylight
28 Jun - 02:13:13 10° SE 02:15:36 15° ESE 02:18:00 10° ENE visible
28 Jun - 03:53:04 10° SW 03:57:08 47° NW 04:01:20 10° NNE visible
28 Jun - 10:51:59 10° N 10:55:08 17° NE 10:58:25 10° E daylight
28 Jun - 12:32:41 10° NNW 12:37:41 80° WSW 12:43:07 10° SSE daylight
